Location: Newark
(41.2758°N, 92.6808°W)
Time: 21:08:41
(UTC+00:00)

Envisat - Pass Details

Date: 26 September 2019
Orbit: 764 x 766 km, 98.1° (Epoch: 20 October)

Event Time Altitude Azimuth Distance (km) Brightness Sun altitude
Rises 00:36:29 0° 176° (S) 3,218 6.1 -7.1°
Reaches altitude 10° 00:38:49 10° 180° (S) 2,296 5.4 -7.5°
Maximum altitude 00:43:48 58° 259° (W) 888 3.7 -8.5°
Drops below altitude 10° 00:48:49 10° 339° (NNW) 2,311 5.9 -9.4°
Sets 00:51:11 0° 344° (NNW) 3,242 6.6 -9.9°
